www.pogodaiklimat.ru

Погода и климат >> Архив погоды >> Великобритания >> Kirkwall


АРХИВ ПОГОДЫ в Kirkwall

Время (UTC), дата Ветер
(напр.,м/с)
 
Видим.   Явления Облачность Т
(С)
Тd
(С)
f
(%)
Тe
(С)
Тes
(С)
Комфортность P
(гПа)
Po
(гПа)
Тmin
(С)
Tmax
(С)
R
(мм)
R24
(мм)
S
(см)
10 11.12 СВ 7 50 км н/о +4.4 +1.8 83 -1 -1 тепло 989.8 986.7
11 11.12 СВ 5 30 км н/о +4.8 +1.8 81 0 0 по сезону 990.7 987.5
12 11.12 С 5 35 км н/о +5.0 +2.4 83 0 0 по сезону 991.7 988.5 0.0
13 11.12 С 4 28 км н/о +5.6 +2.4 80 +2 +2 тепло 992.2 989.1
14 11.12 С 4 50 км в посл. час дождь н/о +3.7 +1.1 83 -1 -1 по сезону 992.9 989.7
15 11.12 З 2 27 км н/о +2.6 +0.6 87 -1 -1 по сезону 993.6 990.4
16 11.12 С 3 40 км в посл. час дождь н/о +3.6 +2.1 90 -0 -0 тепло 994.4 991.2
17 11.12 З 2 26 км н/о +1.9 +0.3 89 -2 -2 по сезону 995.1 991.9
18 11.12 З 2 40 км н/о +1.1 +0.1 93 -3 -3 прохладно 995.6 992.4 +5.8 0.0
19 11.12 З 3 30 км в посл. час осадки н/о +1.1 -0.4 90 -4 -4 тепло 996.3 993.1
20 11.12 З 4 30 км н/о +1.3 +0.3 93 -4 -4 по сезону 996.7 993.5
21 11.12 СЗ 7 35 км н/о +4.1 +1.1 81 -2 -2 по сезону 996.7 993.6
22 11.12 СЗ 7 50 км в посл. час дождь н/о +3.4 +1.4 87 -3 -3 тепло 996.5 993.3
23 11.12 СЗ 5 35 км в посл. час дождь н/о +3.6 +1.5 86 -2 -2 по сезону 996.4 993.2
00 12.12 СЗ 6 27 км н/о +4.0 +2.5 90 -1 -1 по сезону 996.6 993.4 0.8
01 12.12 С 8 45 км в посл. час дождь н/о +4.3 +1.7 83 -2 -2 тепло 997.2 994.0
02 12.12 С 6 50 км н/о +4.1 +1.9 86 -1 -1 по сезону 997.6 994.4
03 12.12 СЗ 3 45 км в посл. час дождь н/о +3.6 +1.5 86 -0 -0 по сезону 998.2 995.0
04 12.12 З 4 30 км н/о +2.2 +0.6 89 -3 -3 тепло 998.0 994.8
05 12.12 З 3 30 км н/о +1.8 +0.5 91 -3 -3 по сезону 998.2 995.0
06 12.12 З 3 45 км н/о +1.9 +0.8 92 -2 -2 по сезону 998.4 995.2 +0.9 0.8
07 12.12 З 2 50 км в посл. час дождь н/о +3.2 +1.6 89 +1 +1 тепло 998.5 995.3
08 12.12 З 2 45 км н/о +2.5 +1.3 92 -1 -1 по сезону 998.5 995.3
09 12.12 ЮЗ 2 35 км н/о +2.3 +1.0 91 -1 -1 по сезону 998.4 995.2
10 12.12 З 3 35 км н/о +2.9 +1.8 92 -1 -1 тепло 998.6 995.4
11 12.12 ЮЗ 2 27 км н/о +3.3 +1.8 90 0 0 по сезону 998.4 995.2
12 12.12 ЮЗ 3 30 км н/о +3.0 +0.5 84 -1 -1 по сезону 997.7 994.5 0.0 1
13 12.12 ЮЗ 3 30 км н/о +4.0 +1.1 81 0 0 тепло 997.3 994.1
14 12.12 ЮЗ 5 24 км н/о +3.4 +0.9 84 -2 -2 по сезону 996.4 993.2
15 12.12 Ю 4 35 км н/о +2.1 +0.1 87 -3 -3 прохладно 995.4 992.2
16 12.12 Ю 5 30 км н/о +1.6 -0.1 88 -4 -4 тепло 994.8 991.6
17 12.12 Ю 6 40 км н/о +2.9 +1.8 92 -3 -3 по сезону 993.8 990.6
18 12.12 Ю 7 35 км н/о +3.7 +2.5 92 -2 -2 по сезону 992.5 989.4 +4.2 0.0
19 12.12 Ю 7 45 км н/о +3.8 +2.0 88 -2 -2 тепло 991.5 988.4
20 12.12 Ю 7 45 км н/о +3.8 +2.0 88 -2 -2 по сезону 991.5 988.4
21 12.12 ЮЗ 9 13 км слаб. ливневой дождь н/о +3.9 +2.3 89 -3 -3 прохладно 989.7 986.6
22 12.12 Ю 7 12 км слаб. дождь н/о +3.0 +2.4 96 -3 -3 тепло 988.6 985.4
23 12.12 ЮЗ 8 15 км слаб. дождь н/о +3.6 +3.1 97 -3 -3 по сезону 987.6 984.4
00 13.12 Ю 6 50 км в посл. час дождь н/о +3.3 +2.4 94 -3 -3 прохладно 987.1 983.9 1
01 13.12 ЮЗ 7 20 км н/о +3.9 +3.2 95 -2 -2 тепло 986.4 983.2
02 13.12 ЮЗ 8
{15}
45 км в посл. час дождь н/о +3.8 +1.9 87 -3 -3 по сезону 985.8 982.7
03 13.12 З 6
{17}
24 км в посл. час дождь н/о +3.3 +2.0 91 -2 -2 по сезону 985.4 982.2
04 13.12 З 6 19 км ливневой дождь н/о +3.3 +2.3 93 -2 -2 тепло 984.7 981.6
05 13.12 ЮЗ 7 20 км в посл. час дождь н/о +3.8 +2.8 93 -2 -2 по сезону 983.6 980.5
06 13.12 ЮЗ 7 22 км н/о +3.4 +2.5 94 -3 -3 прохладно 982.6 979.5 +2.7 2
07 13.12 Ю 6 25 км н/о +3.1 +2.0 92 -3 -3 тепло 981.3 978.2
08 13.12 Ю 6 20 км н/о +3.9 +2.5 91 -2 -2 по сезону 980.4 977.3
09 13.12 Ю 7 12 км ливневой дождь н/о +3.3 +2.4 94 -3 -3 прохладно 979.3 976.2
10 13.12 ЮЗ 9
{13}
50 км в посл. час дождь н/о +3.7 +2.6 93 -3 -3 тепло 978.1 975.0
11 13.12 ЮЗ 9 40 км н/о +3.6 +2.7 94 -3 -3 по сезону 977.5 974.4
12 13.12 З 9
{16}
40 км в посл. час дождь н/о +3.3 +2.3 93 -4 -4 холодно 976.9 973.7 2
13 13.12 З 8
{14}
3400 м ливневой дождь н/о +3.6 +2.4 92 -3 -3 тепло 976.2 973.1
14 13.12 З 7-13
{16}
50 км в посл. час дождь н/о +2.6 +1.8 94 -4 -4 по сезону 975.8 972.7
15 13.12 З 8
{16}
21 км в посл. час осадки н/о +3.6 +2.3 91 -3 -3 прохладно 975.8 972.6
16 13.12 З 6
{14}
35 км в посл. час дождь н/о +1.6 +1.1 96 -5 -5 тепло 975.8 972.7
17 13.12 З 2 35 км в посл. час дождь н/о +1.5 +0.8 95 -2 -2 по сезону 975.9 972.7
18 13.12 ЮЗ 6 26 км слаб. морось с дождем н/о +2.0 +1.4 96 -4 -4 прохладно 975.6 972.5 +4.4 3
19 13.12 З 7 25 км в посл. час дождь н/о +2.7 +1.0 89 -4 -4 тепло 975.5 972.3
20 13.12 З 6 40 км н/о +2.4 +0.3 86 -3 -3 по сезону 975.7 972.5
21 13.12 З 6 40 км н/о +2.3 +0.8 90 -4 -4 прохладно 975.5 972.4
22 13.12 З 6 45 км н/о +2.6 +0.8 88 -3 -3 тепло 975.4 972.3
23 13.12 З 7 35 км н/о +2.7 +0.9 88 -4 -4 по сезону 975.4 972.2
00 14.12 З 8 5000 м ливневой дождь н/о +2.4 +1.0 90 -4 -4 прохладно 975.7 972.5 3
01 14.12 ЮЗ 5 40 км в посл. час дождь н/о +1.6 +0.8 94 -4 -4 тепло 975.5 972.4
02 14.12 З 2 40 км в посл. час дождь н/о +1.6 +0.4 92 -2 -2 по сезону 975.4 972.2
03 14.12 СЗ 5 5000 м ливневой дождь н/о +2.1 +0.7 90 -4 -4 прохладно 975.4 972.2
04 14.12 З 6 24 км в посл. час дождь н/о +2.7 +1.7 93 -3 -3 тепло 975.0 971.9
05 14.12 ЮЗ 7 8000 м слаб. ливневой дождь н/о +2.8 +1.8 93 -3 -3 по сезону 974.9 971.8
06 14.12 З 5 40 км в посл. час дождь н/о +2.4 +1.1 91 -3 -3 прохладно 974.8 971.7 +1.1 5
07 14.12 ЮЗ 7 22 км в посл. час дождь н/о +3.4 +2.4 93 -3 -3 тепло 974.8 971.7
08 14.12 ЮЗ 3
{13}
25 км слаб. ливневой дождь н/о +3.2 +2.0 92 -1 -1 по сезону 975.0 971.9
09 14.12 ЮЗ 8 18 км в посл. час дождь н/о +3.9 +2.8 93 -3 -3 прохладно 974.9 971.8
10 14.12 ЮЗ 7 15 км н/о +4.6 +3.6 93 -1 -1 тепло 974.9 971.8
11 14.12 ЮЗ 7
{13}
3800 м дождь н/о +3.2 +2.7 97 -3 -3 по сезону 975.7 972.6
12 14.12 ЮЗ 8
{14}
35 км слаб. дождь н/о +3.8 +3.2 96 -3 -3 прохладно 975.7 972.6 4
13 14.12 ЮЗ 8
{13}
14 км слаб. морось с дождем н/о +3.4 +2.7 95 -3 -3 тепло 976.3 973.2
14 14.12 Ю 5
{13}
35 км в посл. час дождь н/о +3.1 +2.5 96 -2 -2 по сезону 977.6 974.5
15 14.12 В 3 35 км н/о +2.4 +2.0 97 -2 -2 прохладно 978.9 975.8
16 14.12 В 3 50 км н/о +1.3 +0.8 96 -3 -3 тепло 980.7 977.5
17 14.12 В 4 45 км н/о +1.7 +1.2 96 -3 -3 по сезону 982.3 979.1
18 14.12 СВ 4 30 км н/о +4.0 +3.7 98 -1 -1 по сезону 983.9 980.7 +4.8 4
19 14.12 СВ 3 50 км н/о +3.4 +1.8 89 -1 -1 тепло 985.2 982.0
20 14.12 С 2 50 км н/о +3.7 +3.0 95 +1 +1 тепло 986.3 983.1
21 14.12 С 6 7000 м ливневой дождь н/о +4.8 +3.7 93 -1 -1 по сезону 987.5 984.4
22 14.12 СВ 12
{16}
12 км слаб. ливневой дождь н/о +5.0 +4.2 95 -2 -2 тепло 989.2 986.0
23 14.12 СВ 14
{18}
5000 м слаб. ливневой дождь н/о +5.4 +4.0 91 -2 -2 по сезону 990.4 987.2
00 15.12 СВ 12
{18}
17 км в посл. час дождь н/о +5.8 +3.6 86 -1 -1 по сезону 991.9 988.8 1
01 15.12 СВ 12
{17}
17 км н/о +6.2 +2.3 76 -0 -0 тепло 993.3 990.2
02 15.12 С 12
{16}
20 км н/о +5.7 +1.8 76 -1 -1 по сезону 995.1 991.9
03 15.12 С 12
{16}
25 км н/о +5.4 +1.3 75 -1 -1 по сезону 996.8 993.6
04 15.12 С 11-18
{20}
40 км в посл. час дождь н/о +4.3 +1.1 80 -3 -3 тепло 998.0 994.8
05 15.12 С 10
{13}
25 км н/о +4.9 +1.9 81 -2 -2 по сезону 998.9 995.7
06 15.12 С 7 30 км в посл. час дождь н/о +4.6 +2.5 86 -1 -1 по сезону 999.8 996.6 +2.9 1
07 15.12 С 6 35 км н/о +4.1 +1.5 83 -1 -1 тепло 1000.7 997.5
08 15.12 С 7
{13}
30 км слаб. ливневой дождь н/о +4.0 +2.1 87 -2 -2 по сезону 1001.6 998.4
09 15.12 С 8 30 км в посл. час дождь н/о +4.4 +1.4 81 -2 -2 по сезону 1002.5 999.3
10 15.12 СЗ 7
{14}
45 км в посл. час дождь н/о +3.7 +1.8 87 -2 -2 тепло 1003.3 1000.1
11 15.12 С 8 29 км н/о +4.4 +2.5 87 -2 -2 по сезону 1004.0 1000.8
12 15.12 С 7
{13}
21 км в посл. час дождь н/о +4.5 +1.5 81 -1 -1 по сезону 1004.4 1001.2 0.2
13 15.12 С 9
{14}
22 км в посл. час дождь н/о +4.5 +0.4 75 -2 -2 тепло 1004.7 1001.5
14 15.12 СЗ 7 30 км н/о +4.4 +0.8 77 -1 -1 по сезону 1005.1 1001.9
15 15.12 С 7
{15}
40 км в посл. час дождь н/о +2.6 +0.8 88 -4 -4 прохладно 1005.6 1002.4
16 15.12 СЗ 10
{14}
11 км слаб. ливневой дождь н/о +2.3 +1.0 91 -5 -5 тепло 1006.8 1003.5
17 15.12 СЗ 5
{13}
30 км в посл. час дождь н/о +2.3 +1.1 92 -3 -3 по сезону 1006.8 1003.6
18 15.12 СЗ 7 26 км в посл. час дождь н/о +2.9 +0.9 87 -3 -3 прохладно 1007.3 1004.1 +5.0 0.8
19 15.12 С 7
{14}
40 км в посл. час дождь н/о +2.0 +1.1 94 -5 -5 тепло 1008.1 1004.8
20 15.12 СЗ 8 45 км в посл. час дождь н/о +2.7 +0.2 84 -4 -4 по сезону 1008.3 1005.1
21 15.12 СЗ 10
{13}
9000 м слаб. ливневой дождь н/о +2.2 +0.4 88 -5 -5 прохладно 1008.7 1005.5
22 15.12 СЗ 8 2700 м осадки н/о +1.7 +0.6 92 -5 -5 тепло 1009.2 1006.0
23 15.12 СЗ 5 30 км в посл. час дождь н/о +1.9 +0.7 92 -4 -4 по сезону 1009.2 1005.9
00 16.12 З 6 8000 м осадки н/о +2.0 +0.7 91 -4 -4 прохладно 1009.7 1006.4 0.4
01 16.12 З 4 40 км в посл. час дождь н/о +1.7 +0.6 92 -3 -3 тепло 1009.6 1006.3
02 16.12 СЗ 5 40 км в посл. час дождь н/о +2.4 +0.8 89 -3 -3 по сезону 1009.7 1006.4
03 16.12 СЗ 5
{13}
45 км в посл. час дождь н/о +2.1 +0.9 92 -4 -4 прохладно 1010.1 1006.8
04 16.12 З 5 40 км н/о +1.5 -0.2 88 -4 -4 тепло 1010.4 1007.1
05 16.12 СЗ 6 40 км н/о +3.0 -0.2 79 -3 -3 по сезону 1010.4 1007.2
06 16.12 СЗ 5 40 км в посл. час дождь н/о +3.2 -0.3 78 -2 -2 по сезону 1010.5 1007.3 +1.1 0.8
07 16.12 СЗ 7 30 км слаб. ливневой дождь н/о +3.4 +1.1 85 -3 -3 тепло 1011.1 1007.9
08 16.12 СЗ 6
{14}
45 км в посл. час дождь н/о +2.9 +0.8 86 -3 -3 по сезону 1011.8 1008.5
09 16.12 СЗ 6 50 км в посл. час осадки н/о +2.6 +0.6 87 -3 -3 прохладно 1012.6 1009.3
10 16.12 СЗ 6 45 км в посл. час дождь н/о +2.3 +0.8 90 -4 -4 тепло 1013.3 1010.0
11 16.12 С 4
{13}
50 км в посл. час дождь н/о +1.8 +1.0 94 -3 -3 по сезону 1013.8 1010.6
12 16.12 С 3 35 км н/о +3.1 +1.9 92 -1 -1 по сезону 1014.1 1010.9 1
13 16.12 З 6 45 км н/о +2.2 +0.5 89 -4 -4 тепло 1014.4 1011.1
14 16.12 СЗ 3 13 км морось с дождем н/о +3.4 +2.3 92 -0 -0 тепло 1015.2 1012.0
15 16.12 З 3 35 км в посл. час дождь н/о +1.2 -0.1 91 -3 -3 прохладно 1015.5 1012.2
16 16.12 З 4 50 км н/о +1.0 +0.3 95 -4 -4 тепло 1015.9 1012.6
17 16.12 З 3 35 км н/о +0.8 -0.3 92 -4 -4 по сезону 1016.2 1012.9
18 16.12 З 3 45 км н/о +0.7 -0.8 90 -4 -4 прохладно 1016.7 1013.4 +3.9 1
19 16.12 З 3 45 км н/о +1.1 -0.6 88 -3 -3 тепло 1016.9 1013.6
20 16.12 ЮЗ 4 50 км в посл. час дождь н/о +1.8 +0.6 92 -3 -3 по сезону 1016.9 1013.6
21 16.12 ЮЗ 5 50 км н/о +2.0 +1.0 93 -4 -4 прохладно 1016.7 1013.4
22 16.12 Ю 5 50 км н/о +1.5 +0.2 91 -4 -4 тепло 1016.3 1013.0
23 16.12 Ю 5 50 км н/о +2.4 +1.7 95 -3 -3 по сезону 1015.9 1012.7
00 17.12 Ю 5 45 км н/о +1.6 +1.2 97 -4 -4 прохладно 1015.4 1012.2 0.0
01 17.12 Ю 5 50 км н/о +1.7 +1.3 97 -4 -4 тепло 1014.9 1011.6
02 17.12 Ю 5 45 км н/о +2.4 +2.0 97 -3 -3 по сезону 1013.7 1010.5
03 17.12 Ю 7 50 км н/о +3.5 +1.9 89 -2 -2 по сезону 1012.5 1009.3
04 17.12 Ю 7 29 км слаб. ливневой дождь н/о +4.1 +2.9 92 -2 -2 тепло 1011.3 1008.0
05 17.12 Ю 8 10 км слаб. дождь н/о +4.4 +4.2 99 -2 -2 по сезону 1009.6 1006.4
06 17.12 Ю 9 18 км слаб. дождь н/о +4.8 +4.6 99 -2 -2 по сезону 1007.9 1004.7 +0.7 0.6
07 17.12 Ю 9 13 км слаб. дождь н/о +5.2 +4.9 98 -1 -1 тепло 1006.3 1003.1
08 17.12 Ю 9
{13}
7000 м дождь н/о +5.6 +5.4 99 -1 -1 по сезону 1005.2 1002.0
09 17.12 Ю 10
{14}
8000 м дождь н/о +6.0 +5.8 99 -0 -0 по сезону 1003.7 1000.5
10 17.12 Ю 10
{15}
6000 м дождь н/о +6.0 +5.9 99 -0 -0 тепло 1002.9 999.7
11 17.12 ЮЗ 11
{15}
3900 м слаб. морось н/о +6.4 +6.4 100 0 0 по сезону 1002.3 999.2
12 17.12 З 7
{14}
3600 м дождь н/о +7.9 +7.9 100 +3 +3 по сезону 1002.5 999.3 9
13 17.12 СЗ 8
{16}
10 км в посл. час дождь н/о +7.0 +5.7 91 +2 +2 тепло 1004.2 1001.0
14 17.12 СЗ 9-16
{16}
12 км н/о +6.6 +3.3 79 +1 +1 тепло 1005.8 1002.6
15 17.12 СЗ 9
{16}
13 км в посл. час дождь н/о +6.4 +2.6 77 +1 +1 по сезону 1006.8 1003.6
16 17.12 СЗ 9-14
{17}
14 км в посл. час дождь н/о +6.3 +2.5 77 +1 +1 тепло 1008.5 1005.3
17 17.12 З 8
{15}
13 км в посл. час дождь н/о +5.4 +3.4 87 -0 -0 тепло 1009.5 1006.3
18 17.12 З 8
{18}
16 км в посл. час дождь н/о +5.1 +3.4 89 -1 -1 по сезону 1010.6 1007.4 +8.2 11
19 17.12 З 8
{13}
21 км слаб. ливневой дождь н/о +5.4 +3.5 88 -0 -0 тепло 1012.0 1008.7
20 17.12 СЗ 6 17 км в посл. час дождь н/о +5.4 +2.4 81 +1 +1 тепло 1013.3 1010.1
21 17.12 З 6 17 км в посл. час дождь н/о +5.3 +3.1 86 0 0 по сезону 1014.2 1010.9
22 17.12 З 5 18 км н/о +5.2 +2.8 84 +1 +1 тепло 1015.1 1011.9
23 17.12 СЗ 5 21 км н/о +5.4 +2.6 82 +1 +1 тепло 1016.0 1012.8
00 18.12 З 5 19 км в посл. час дождь н/о +5.2 +2.4 82 +1 +1 по сезону 1016.5 1013.3 0.0
01 18.12 З 5 16 км н/о +4.2 +2.3 87 -1 -1 тепло 1017.6 1014.3
02 18.12 З 6 17 км н/о +4.5 +2.7 88 -1 -1 по сезону 1018.4 1015.1
03 18.12 З 4 15 км н/о +2.9 +1.9 93 -2 -2 по сезону 1019.2 1015.9
04 18.12 З 4 17 км н/о +4.1 +3.2 94 -1 -1 тепло 1019.8 1016.5
05 18.12 ЮЗ 5 18 км н/о +4.6 +3.9 95 -0 -0 тепло 1020.4 1017.1
06 18.12 З 4 20 км н/о +4.2 +3.1 93 -0 -0 по сезону 1021.1 1017.8 +2.5 0.0
07 18.12 ЮЗ 5 15 км н/о +5.8 +4.7 93 +1 +1 тепло 1021.1 1017.9
08 18.12 ЮЗ 5 12 км н/о +6.2 +5.3 94 +2 +2 тепло 1021.4 1018.2
09 18.12 ЮЗ 6 13 км н/о +5.7 +4.6 93 +1 +1 по сезону 1021.7 1018.5

 

Местоположение метеостанции Kirkwall (Великобритания): широта 58.95 долгота -2.90 высота над уровнем моря 26 м.

В архиве по умолчанию представлена погода в Kirkwall за последнюю неделю. Архивные данные за месяц целиком и за предыдущие месяцы, начиная с января 2011 года, Вы можете получить, выбрав интересующий диапазон дат из раскрывающегося списка и нажав кнопку "Ввод!".

Внимание! Время в таблицах - всемирное. Для получения местного времени необходимо прибавить поправку, которая в Kirkwall равна 0 ч.

Смотрите также архив погоды в соседних городах и на ближайших метеорологических станциях:

Погода в Wick (Великобритания) (57 км)
Погода в Sule Skerry (Великобритания) (87 км)
Погода в Fair Isle (Великобритания) (97 км)
Погода в Altnaharra (Великобритания) (116 км)
Погода в Foula (Великобритания) (138 км)
Погода в Lossiemouth (Великобритания) (139 км)
Погода в Tain Range (Великобритания) (140 км)
Погода в Kinloss (Великобритания) (150 км)
Погода в Lerwick (Великобритания) (163 км)
Погода в Loch Glascarnoch (Великобритания) (179 км)

Пояснения к столбцам:

Ветер - указаны скорость ветра в м/с - средняя за 10 мин, порывы в срок и между сроками (в фигурных скобках) и направление, откуда дует ветер: С - северный, СВ - северо-восточный, В - восточный, ЮВ - юго-восточный, Ю - южный, ЮЗ - юго-западный, З - западный, СЗ - северо-западный.
Видимость - горизонтальная дальность видимости в метрах или километрах. При видимости от 1 до 10 км при отсутствии осадков обычно наблюдается дымка, при ухудшении видимости до 1 км и менее - туман. В сухую погоду видимость может ухудшаться дымом, пылью или мглою.
Явления - указаны атмосферные явления, наблюдавшиеся в срок или в последний час перед сроком; фигурными скобками обозначены явления, наблюдавшиеся между сроками (за 1-3 часа до срока); квадратными скобками обозначены град или гололедные отложения с указанием их диаметра в мм.
Облачность - указаны через наклонную черту общая и нижняя облачность в баллах и высота нижней границы облаков в метрах; квадратными скобками обозначены формы облаков: Ci - перистые, Cs - перисто-слоистые, Cc - перисто-кучевые, Ac - высококучевые, As - высокослоистые, Sc - слоисто-кучевые, Ns - слоисто-дождевые, Cu - кучевые, Cb - кучево-дождевые. Подробнее классификацию облаков см. в Атласе облаков (PDF).
T - Температура воздуха - температура, измеренная на высоте 2 м над землей.
Td - Температура точки росы - температура, при понижении до которой содержащийся в воздухе водяной пар достигнет насыщения.
f - Относительная влажность воздуха - влажноcть воздуха, измеренная на высоте 2 м над землей.
Te - Эффективная температура - температура, которую ощущает одетый по сезону человек в тени. Характеристика душности погоды. При расчете учитывается влияние влажности воздуха и скорости ветра на теплоощущения человека.
Tes - Эффективная температура на солнце - температура, которую ощущает человек, с поправкой на солнечный нагрев. Характеристика знойности погоды. Зависит от высоты солнца над горизонтом, облачности и скорости ветра. Ночью, в пасмурную погоду, а также при ветре 12 м/с и более поправка равна нулю.
P - Атмосферное давление - приведенное к уровню моря атмосферное давление.
Po - Атмосферное давление - измеренное на уровне метеостанции атмосферное давление.
Tmin - Минимальная температура - минимум температуры воздуха на высоте 2 м над землей.
Tmax - Максимальная температура - максимум температуры воздуха на высоте 2 м над землей.
R - Количество осадков - Количество выпавших осадков за период времени, мм. При наведении курсора мыши на число - период времени, за который выпало указанное количество осадков.
R24 - Количество осадков - Количество выпавших осадков за 24 часа, мм.
S - Снежный покров - Высота снежного покрова, см. При наведении курсора мыши на число - состояние снежного покрова и степень покрытия местности в баллах.